Norfolk, NE

5:27 PM CST on December 16, 2017 (GMT -0600)
Stefan Memorial

Weather History for KOFK - December, 2014

Change the Weather History Date:

Sunday, December 7, 2014

  Actual Average Record
Temperature  
Mean Temperature 36 °F 26 °F  
Max Temperature 41 °F 36 °F 69 °F (1984)
Min Temperature 30 °F 16 °F -13 °F (1908)
Degree Days  
Heating Degree Days 29 39  
Month to date heating degree days 248 266  
Since 1 July heating degree days 1741 1711  
Cooling Degree Days 0 0  
Month to date cooling degree days 0 0  
Year to date cooling degree days 812 915  
Moisture  
Dew Point 33 °F    
Average Humidity 93    
Maximum Humidity 100    
Minimum Humidity 85    
Precipitation  
Precipitation 0.00 in 0.03 in 1.07 in (1926)
Month to date precipitation 0.00 0.21  
Year to date precipitation 28.51 26.87  
Snow  
Snow 0.00 in 0.20 in - ()
Month to date snowfall 0.0 1.4  
Since 1 July snowfall 3.7 6.3  
Snow Depth 0.00 in    
Sea Level Pressure  
Sea Level Pressure 30.26 in    
Wind  
Wind Speed 12 mph (South)    
Max Wind Speed 21 mph    
Max Gust Speed 28 mph    
Visibility 4 miles    
Events      
T = Trace of Precipitation, MM = Missing Value Source: NWS Daily Summary

Daily Weather History Graph

Daily Weather History Graph

Search for Another Location

Airport or City:

Trip Planner

Search our weather history database for the weather conditions in past years. The results will help you decide how hot, cold, wet, or windy it might be!

Date:

Astronomy

Dec. 07, 2014 Rise Set
Actual Time 7:44 AM CST 4:58 PM CST
Civil Twilight 7:12 AM CST 5:29 PM CST
Nautical Twilight 6:37 AM CST 6:04 PM CST
Astronomical Twilight 6:03 AM CST 6:38 PM CST
Moon 6:29 PM CST (12/7) 8:27 AM CST (12/7)
Length of Visible Light 10h 16m
Length of Day
9h 14m
Full, 98% of the Moon is Illuminated
Dec 7
Full
Dec 14
Last Quarter
Dec 21
New
Dec 28
First Quarter
Jan 4
Full

Hourly Weather History & Observations

Time (CST) Temp. Windchill Dew Point Humidity Pressure Visibility Wind Dir Wind Speed Gust Speed Precip Events Conditions
12:32 AM 30.0 °F 20.5 °F 28.0 °F 92% 30.40 in 2.5 mi SSE 11.5 mph 20.7 mph N/A   Overcast
12:40 AM 30.0 °F 21.1 °F 28.0 °F 92% 30.40 in 2.5 mi SSE 10.4 mph - N/A   Overcast
12:53 AM 30.2 °F 20.8 °F 28.4 °F 93% 30.40 in 1.5 mi South 11.5 mph - N/A   Overcast
12:56 AM 30.0 °F 20.0 °F 28.9 °F 96% 30.45 in 1.5 mi South 12.7 mph - N/A   Overcast
1:56 AM 30.9 °F 21.7 °F 30.0 °F 96% 30.43 in 1.0 mi South 11.5 mph - N/A   Overcast
2:56 AM 30.9 °F 20.7 °F 30.0 °F 96% 30.43 in 1.8 mi South 13.8 mph - N/A   Overcast
3:01 AM 30.9 °F 19.8 °F 30.0 °F 96% 30.37 in 3.0 mi South 16.1 mph 23.0 mph N/A   Overcast
3:35 AM 30.9 °F 20.2 °F 30.0 °F 96% 30.34 in 2.0 mi South 15.0 mph 24.2 mph N/A   Overcast
3:56 AM 30.9 °F 19.4 °F 30.0 °F 96% 30.38 in 2.5 mi SSE 17.3 mph 24.2 mph N/A   Overcast
4:09 AM 30.9 °F 20.7 °F 30.0 °F 96% 30.34 in 3.0 mi SSE 13.8 mph 20.7 mph N/A   Overcast
4:30 AM 30.9 °F 21.2 °F 30.0 °F 96% 30.33 in 2.0 mi South 12.7 mph 24.2 mph N/A   Overcast
4:39 AM 30.9 °F 21.7 °F 30.9 °F 100% 30.33 in 1.8 mi South 11.5 mph - N/A   Overcast
4:56 AM 30.9 °F 20.2 °F 30.0 °F 96% 30.37 in 1.2 mi SSE 15.0 mph - N/A   Overcast
5:56 AM 32.0 °F 22.5 °F 30.9 °F 96% 30.35 in 1.0 mi SSE 12.7 mph - N/A   Overcast
6:56 AM 32.0 °F 21.6 °F 32.0 °F 100% 30.33 in 1.8 mi SSE 15.0 mph - N/A   Overcast
7:07 AM 32.0 °F 21.6 °F 32.0 °F 100% 30.26 in 2.5 mi South 15.0 mph - N/A   Overcast
7:32 AM 33.1 °F 22.2 °F 32.0 °F 96% 30.25 in 3.0 mi SSE 17.3 mph - N/A   Overcast
7:56 AM 33.1 °F 22.6 °F 32.0 °F 96% 30.30 in 3.0 mi South 16.1 mph - N/A   Overcast
8:23 AM 33.1 °F 22.2 °F 32.0 °F 96% 30.24 in 2.5 mi South 17.3 mph 23.0 mph N/A   Overcast
8:48 AM 34.0 °F 23.8 °F 33.1 °F 96% 30.23 in 1.8 mi South 16.1 mph 27.6 mph N/A   Overcast
8:56 AM 34.0 °F 23.0 °F 33.1 °F 96% 30.28 in 2.0 mi South 18.4 mph 26.5 mph N/A   Overcast
9:36 AM 35.1 °F 26.4 °F 34.0 °F 96% 30.24 in 1.8 mi South 12.7 mph 21.9 mph N/A   Overcast
9:56 AM 35.1 °F 25.2 °F 34.0 °F 96% 30.29 in 1.2 mi South 16.1 mph 21.9 mph N/A   Overcast
10:56 AM 36.0 °F 28.0 °F 35.1 °F 97% 30.27 in 2.0 mi South 11.5 mph - N/A   Overcast
11:33 AM 37.0 °F 29.8 °F 36.0 °F 96% 30.21 in 3.0 mi South 10.4 mph - N/A   Overcast
11:56 AM 37.0 °F 28.9 °F 36.0 °F 96% 30.24 in 3.0 mi South 12.7 mph - N/A   Overcast
12:56 PM 37.9 °F 30.0 °F 37.0 °F 97% 30.20 in 3.0 mi South 12.7 mph - N/A   Overcast
1:56 PM 39.0 °F 31.8 °F 37.9 °F 96% 30.19 in 6.0 mi SSW 11.5 mph - N/A   Overcast
2:56 PM 39.9 °F 32.9 °F 37.9 °F 93% 30.16 in 8.0 mi SSW 11.5 mph - N/A   Overcast
3:38 PM 41.0 °F 34.7 °F 37.9 °F 89% 30.13 in 8.0 mi SW 10.4 mph - N/A   Overcast
3:56 PM 41.0 °F 34.7 °F 37.0 °F 86% 30.17 in 8.0 mi SW 10.4 mph - N/A   Overcast
4:56 PM 39.9 °F 32.9 °F 36.0 °F 86% 30.17 in 7.0 mi SW 11.5 mph - N/A   Mostly Cloudy
5:10 PM 37.9 °F 32.1 °F 35.1 °F 89% 30.12 in 6.0 mi SSW 8.1 mph - N/A   Scattered Clouds
5:56 PM 35.1 °F 29.3 °F 34.0 °F 96% 30.17 in 6.0 mi South 6.9 mph - N/A   Clear
6:56 PM 37.9 °F 32.1 °F 35.1 °F 89% 30.16 in 6.0 mi SSW 8.1 mph - N/A   Mostly Cloudy
7:56 PM 39.0 °F 31.8 °F 36.0 °F 89% 30.16 in 7.0 mi SSW 11.5 mph - N/A   Overcast
8:56 PM 37.0 °F 30.4 °F 34.0 °F 89% 30.15 in 7.0 mi SW 9.2 mph - N/A   Scattered Clouds
9:56 PM 35.1 °F 31.0 °F 32.0 °F 89% 30.16 in 7.0 mi West 4.6 mph - N/A   Partly Cloudy
10:56 PM 32.0 °F 26.4 °F 28.9 °F 88% 30.16 in 8.0 mi WSW 5.8 mph - N/A   Clear
11:56 PM 39.9 °F 32.5 °F 30.0 °F 68% 30.15 in 10.0 mi West 12.7 mph - N/A   Clear